Location: Asis
(14.1331°N, 120.9056°E)
Time: 17:39:52
(UTC+00:00)

Delta 2 Rocket - Pass Details

Date: 15 January 2026
Orbit: 890 x 1677 km, 26.4° (Epoch: 13 February)

Event Time Altitude Azimuth Distance (km) Brightness Sun altitude
Rises 10:58:24 0° 292° (WNW) 4,094 8.1 -17.1°
Reaches altitude 10° 11:01:27 10° 291° (WNW) 3,011 7.3 -17.8°
Maximum altitude 11:08:40 76° 206° (SSW) 1,024 4.1 -19.4°
Enters shadow 11:13:06 21° 123° (ESE) 1,985 5.3 -20.5°
